Dewpoint
29 24 21 19 24 19 15 16 17 16 16 23 23 22 23 23 22 23 23 23 22 22 22 24 26 27 26 27 26 24 24 26 27 28 28 28 27 27 27 27 26 25 25 25
27 24 23 22 22 24 22 19 17 17 20 21 19 17 18 21 21 20 21 22 23 23 22 23 24 27 27 26 26 24 24 25 26 26 27 26 24 24 24 25 25 24 25 25
19 20 28 23 22 22 21 20 19 18 19 20 19 17 19 20 21 21 24 24 24 23 22 23 22 26 26 25 24 23 24 24 24 26 26 25 24 22 22 23 23 24 25 26
24 25 24 26 24 22 18 21 21 20 20 14 18 12 13 16 18 20 22 22 23 23 23 23 23 26 25 24 23 22 23 24 24 25 25 23 22 20 20 20 23 24 25 24
16 20 23 22 21 24 20 20 19 21 21 21 21 19 20 17 16 16 16 18 18 18 20 22 24 26 25 23 22 22 23 23 23 24 24 23 22 22 21 22 22 22 24 24
21 22 22 22 23 22 23 21 21 22 19 16 16 16 11 14 14 14 15 15 16 16 19 21 24 27 24 21 22 22 22 23 24 23 23 22 21 21 21 22 22 22 23 23
16 19 21 23 20 22 22 20 17 14 16 15 13 16 11 12 13 15 13 14 15 17 19 22 24 26 22 20 21 22 22 22 24 24 22 21 20 20 19 21 21 21 22 22
13 12 19 22 19 18 20 18 19 12 11 11 19 14 13 17 16 16 17 17 17 16 21 23 24 25 23 21 21 20 23 22 23 23 22 22 20 21 20 20 21 21 20 20
15 15 21 23 22 20 19 19 19 22 11 15 13 14 16 19 16 16 17 18 18 17 22 23 23 24 24 22 21 20 21 22 22 22 23 22 21 20 19 20 21 21 20 20
19 17 19 19 21 21 21 22 20 21 16 12 13 13 13 15 15 16 16 16 18 20 24 24 22 23 24 24 22 22 21 21 22 23 22 22 22 20 19 20 20 20 20 19
26 25 24 19 19 18 20 20 20 20 25 17 15 15 15 14 16 16 17 16 19 20 24 25 24 23 23 23 23 23 22 22 22 22 22 22 22 21 20 19 19 20 18 17
31 31 31 30 24 21 19 18 19 17 19 20 20 18 24 22 22 22 19 18 15 21 22 23 26 26 24 23 22 22 23 23 23 22 22 22 22 21 20 19 18 18 16 16
37 34 28 29 31 27 16 18 19 19 20 20 22 23 22 20 20 24 22 20 15 15 16 20 24 26 26 24 23 22 23 23 23 23 22 22 21 20 20 19 17 16 15 14
39 34 30 24 22 26 22 22 20 17 16 17 17 17 17 18 20 21 23 22 17 16 18 18 19 23 25 26 24 23 22 23 23 23 22 21 21 20 20 19 16 15 14 13
37 33 35 34 33 31 29 29 27 23 22 21 19 19 20 20 22 22 24 24 22 20 19 20 19 21 24 26 25 24 23 23 23 22 22 21 21 20 20 18 17 16 15 11
36 32 35 32 34 32 31 30 30 28 27 26 27 26 27 27 26 25 26 26 26 25 27 28 25 21 22 24 24 24 23 23 23 23 22 21 21 21 20 19 17 16 14 13
31 31 30 27 31 30 26 31 32 30 30 30 27 28 31 32 31 30 30 33 34 33 32 31 30 31 26 22 22 24 24 24 24 25 25 23 22 20 18 17 16 14 13 13
29 29 29 25 26 19 26 35 34 33 33 32 31 31 30 28 29 35 35 35 33 31 29 30 31 31 31 30 28 26 26 24 25 26 25 22 20 19 17 16 15 14 13 13
21 27 24 22 20 22 25 27 29 29 29 27 27 25 25 26 22 31 25 25 27 28 29 29 32 32 31 28 28 28 23 23 24 24 24 22 20 19 16 16 15 14 14 13
12 20 19 17 15 15 21 25 24 29 25 24 27 26 26 25 17 18 23 27 28 30 31 33 33 33 32 29 23 24 22 22 22 23 22 21 20 19 17 16 15 15 15 14
5 7 9 11 10 17 19 24 18 19 15 25 26 23 21 18 21 23 24 26 29 28 27 29 31 31 32 28 23 23 21 21 21 20 18 17 17 17 16 16 15 15 14 13
4 10 9 11 4 7 15 13 9 11 21 28 24 20 23 21 20 21 24 25 23 23 24 27 29 29 31 32 25 24 22 20 17 17 15 15 15 16 16 13 13 13 13 12
4 10 7 13 11 13 15 15 12 28 23 22 22 22 18 20 20 19 16 17 18 19 21 25 28 29 30 32 29 26 27 17 15 17 17 16 13 14 14 13 12 11 11 10
11 8 9 10 8 10 9 10 14 19 21 19 18 15 18 14 13 13 14 13 13 18 19 20 21 23 25 28 31 30 29 21 18 18 16 15 13 13 13 12 11 11 10 9
10 12 10 10 11 11 9 11 16 17 15 14 14 14 13 12 12 11 11 12 14 13 13 15 15 15 16 21 27 31 31 22 19 18 16 14 14 12 12 12 11 11 10 11
12 9 7 5 6 6 9 13 15 13 11 12 13 12 12 11 10 10 10 10 10 9 10 10 10 11 13 15 18 20 27 22 21 17 15 13 12 11 11 11 11 19 17 18
Lifted_Index
6 6 5 5 5 5 5 5 4 4 4 5 5 6 7 7 7 7 6 6 6 5 5 6 7 7 8 9 9 9 10 10 11 12 12 12 12 13 15 16 17 18 19 19
6 6 5 5 5 5 5 4 4 4 5 5 6 7 7 7 7 7 6 6 5 5 5 6 6 7 8 9 9 10 10 10 11 12 12 12 13 13 14 15 17 18 19 19
5 6 6 6 5 5 4 4 4 4 5 6 6 6 7 7 7 6 6 6 5 5 5 5 6 7 8 9 9 10 10 11 11 12 12 12 12 12 13 14 15 17 18 19
6 6 6 5 5 4 4 4 5 5 5 5 6 5 6 6 6 6 6 6 5 5 5 5 6 6 7 8 9 10 11 11 12 12 12 12 11 11 11 12 14 16 18 19
5 6 5 5 5 5 5 5 5 5 5 5 5 5 5 6 6 6 6 6 6 5 5 5 5 6 7 8 9 10 11 11 12 12 12 11 10 10 10 11 13 15 17 18
6 6 6 5 5 6 5 5 4 4 3 4 4 5 5 7 7 7 7 7 7 6 6 5 6 6 7 8 9 10 11 11 11 11 11 10 10 10 10 11 12 14 15 16
5 6 6 6 5 5 4 4 3 2 2 3 4 4 5 7 8 7 7 7 7 6 6 6 6 6 7 8 9 10 10 10 10 10 9 9 9 9 10 10 11 12 14 15
4 4 5 5 4 4 4 3 2 1 1 3 4 4 6 7 7 7 7 7 7 6 6 6 6 6 7 8 8 9 9 9 8 9 9 9 10 10 10 10 11 12 13 14
3 4 4 5 4 4 4 3 3 2 2 2 3 4 6 7 7 7 7 6 6 5 5 5 5 6 6 7 7 8 8 7 7 8 9 10 10 10 10 11 11 12 14 15
2 3 4 4 4 4 4 3 3 3 2 1 2 3 5 7 7 7 6 5 5 4 4 4 5 5 5 6 6 7 7 6 6 7 8 9 10 10 10 10 11 12 13 15
2 2 3 4 4 3 3 3 2 2 2 1 1 3 5 6 6 6 5 4 4 4 3 3 4 5 5 5 6 6 6 6 6 7 8 8 9 9 10 10 10 11 13 14
2 2 2 3 3 3 3 2 2 2 2 2 2 3 4 5 5 5 4 4 3 3 3 3 4 4 4 4 5 5 5 5 6 6 7 7 8 8 9 9 9 10 12 13
2 1 1 2 3 3 2 2 2 2 2 2 2 3 4 5 4 4 4 4 3 3 3 3 3 4 4 4 4 4 5 6 6 7 7 7 7 7 7 8 9 9 11 12
1 1 1 2 2 2 2 1 1 2 2 2 2 3 4 4 4 4 4 4 4 3 3 3 3 3 4 4 4 5 5 6 6 7 7 7 6 6 6 7 8 9 10 11
1 1 1 1 1 1 1 1 1 1 2 2 2 2 2 3 4 4 5 5 4 4 4 3 3 4 4 4 5 5 6 6 7 7 7 7 6 6 6 7 7 8 10 11
1 0 0 1 1 1 1 1 1 1 2 1 1 1 1 2 2 3 4 5 4 4 4 5 5 5 5 5 5 5 6 6 7 7 6 6 6 6 6 7 7 8 9 10
2 1 1 1 2 2 2 1 1 1 1 1 1 1 1 1 1 2 3 4 5 5 5 6 6 6 5 5 5 5 5 6 6 6 6 6 6 6 6 7 7 7 8 9
3 3 2 2 2 2 2 1 1 1 1 0 1 1 1 1 1 2 3 4 5 6 6 7 8 7 7 6 5 5 5 6 6 6 6 6 6 6 6 6 6 6 7 8
3 3 2 2 2 1 1 1 2 1 1 2 3 3 4 4 3 3 4 6 7 8 8 8 9 9 8 7 6 5 4 5 6 6 6 6 6 5 5 5 5 6 7 7
3 2 2 2 2 1 2 2 3 2 2 4 6 7 8 7 6 6 8 9 10 10 11 10 10 9 9 8 7 5 5 5 5 5 5 5 5 5 4 4 5 6 7 7
3 3 3 2 2 2 3 4 4 3 5 7 9 10 11 11 10 10 11 12 12 13 13 12 11 10 10 9 8 7 6 6 6 6 6 5 5 5 5 5 5 6 7 7
5 5 4 4 3 3 4 5 6 7 8 9 10 11 12 12 12 12 12 13 13 14 14 13 13 12 11 10 9 9 8 8 7 7 7 6 6 6 6 6 6 6 7 7
6 6 6 6 5 6 6 7 7 8 9 10 10 11 11 12 12 12 13 13 14 14 15 14 13 13 13 12 11 10 10 9 9 8 7 7 7 6 6 6 6 6 7 7
7 7 7 6 6 7 7 7 7 7 7 8 9 10 10 11 11 12 13 14 15 15 14 14 13 13 13 13 12 12 11 11 10 9 8 7 7 7 6 6 6 6 7 8
7 6 6 6 5 5 6 6 6 6 6 6 7 8 9 9 10 12 13 14 15 14 14 14 13 13 13 13 13 13 13 12 10 9 8 8 8 7 7 6 6 6 8 9
6 5 5 5 4 4 5 5 5 5 5 6 6 7 8 9 10 11 12 13 14 14 14 14 13 13 13 13 13 13 13 13 11 10 9 8 8 8 7 7 7 7 9 10